COSMOS 1275 DEB, 12735

Orbit data source: Space-Track

COSMOS 1275 DEB, 12735 is space debris in LEO originally from a launch on Thu, 04 Jun 1981 UTC launched from the Plesetsk Missile And Space Complex (PKMTR). Debris objects in space refer to the collection of defunct objects orbiting the Earth. Examples of debris include non-operational satellites, rocket bodies, and fragments generated from explosions, collisions, or faulty payload assembly.

Loading next visibility...
Identifier
12735, 1981-053CC
Orbit
LEO
Country
Flag of CISCIS
Related business
Manufacturer
Unknown
Mission
Spacecraft
Bus & Motor
Unknown
Mass
Unknown
Launch date (UTC)
1981-06-04 (45 years ago)
Launch vehicle
Unknown
Launch site
Plesetsk Missile And Space Complex (PKMTR)
Object type
Payload
Rocket body
Debris
Shape & HBR
Unknown shape, 0.2 m
Radar Cross Section
Small (<0.1 m²)

Expand to show TLE details & history
Last TLE update: 17 hours ago

TLE from 17 hours ago
0 COSMOS 1275 DEB
1 12735U 81053CC  26073.93132242  .00001047  00000-0  11236-2 0  9996
2 12735  83.1417 131.8698 0097427 264.1512 215.0908 13.70765527221395
Epoch: 2026-03-14T22:21Z
TLE epoch observation values (Epoch: 2026-03-14T22:21:06.257Z)
Latitude
60.74166°
Longitude
151.71543°
Altitude
1,066.221 km
Speed
7.295 km/s
True Right ascension
19h 58m 08s
True Declination
60° 36' 03"
Sunlit
Object was in daylight at epoch
Visualization orbit readout
Latitude
Unknown
Longitude
Unknown
Altitude
Unknown
Speed
Unknown
Apparent Right ascension
Unknown
Apparent Declination
Unknown
Sunlit
N/A
Visualization observer readout
Local Sidereal Time
19:54:36
Azimuth
Unknown
Elevation
Unknown
Doppler factor
Unknown
Orbital elements
Apogee altitude
1,065.795 km
Perigee altitude
922.147 km
Semi-major axis
7,372.108 km
Eccentricity
0.00974
Inclination
83.1417°
RAAN
131.8698°
Arg. of periapsis
264.1512°
True anomaly
214.45534°
Mean anomaly
215.0908°
Eccentric anomaly
214.77244°
Mean motion
3.42891 °/min
Orbital period
104.99 mins
BSTAR
0.0011236
Loading maneuver chart data...
Computing Atmospheric mass density...

Documentation

Showing up to 5 results
|